Wind_Speed
37 38 41 43 44 45 46 46 47 48 48 47 46 47 47 47 48 48 47 47 48 47 45 44 45 45 46 45 46 46 46 46 47 47 48 48 49 48 46 46 46 45 45
36 38 40 42 44 45 46 46 46 47 48 48 47 47 47 47 48 48 48 47 48 48 47 46 46 46 46 46 47 46 47 47 47 47 47 48 48 48 47 46 46 46 46
34 35 38 41 42 44 45 45 46 46 47 47 46 47 47 48 49 49 48 48 47 47 47 47 46 46 46 46 47 47 47 47 47 47 48 48 47 48 48 47 48 48 48
33 34 37 39 40 41 43 44 45 46 47 47 46 47 47 48 48 48 47 47 48 48 47 47 46 46 46 46 46 46 47 47 47 48 48 48 48 48 48 48 48 48 48
33 34 36 38 40 40 41 42 43 45 47 48 47 47 47 48 49 48 47 47 47 48 47 46 46 46 46 46 47 48 48 48 48 48 48 48 48 49 49 48 48 48 48
34 34 35 36 39 39 40 40 41 43 45 46 47 48 47 48 49 48 47 48 48 48 47 47 48 48 48 48 48 49 48 47 47 48 48 48 48 48 48 48 48 47 47
34 35 35 36 37 38 39 39 39 41 42 43 45 46 47 49 49 49 49 48 49 48 48 48 48 49 50 49 48 49 48 47 47 46 47 47 48 48 49 48 47 47 47
33 34 34 35 36 37 38 39 39 39 40 42 44 45 46 47 49 49 49 49 50 49 49 49 49 49 49 49 48 48 48 47 46 46 46 46 47 48 49 48 47 47 46
33 34 34 35 37 37 38 39 39 39 40 41 42 44 45 47 48 49 49 48 49 49 48 49 49 50 49 48 47 47 47 46 47 47 47 47 48 48 49 48 48 47 47
32 33 34 34 36 37 38 39 39 40 40 41 42 43 45 46 48 49 49 49 49 48 47 47 47 48 47 47 47 46 46 46 47 48 48 48 48 49 49 49 49 49 48
30 31 32 33 34 36 37 37 39 40 40 41 42 43 44 45 46 47 48 48 48 47 47 47 48 47 47 47 47 46 46 47 47 47 47 48 49 49 49 49 49 50 49
31 31 32 33 34 35 36 37 37 38 39 40 42 43 44 44 46 46 46 47 47 46 47 47 48 48 48 48 48 47 47 47 47 47 48 49 49 49 49 49 49 49 49
30 31 32 32 33 34 35 36 36 38 39 40 41 42 43 43 44 45 45 45 46 46 46 47 47 48 48 48 48 48 49 49 49 48 49 49 49 49 49 49 49 49 49
30 31 31 32 32 34 35 36 37 37 39 40 41 41 42 42 43 44 44 45 45 46 46 47 47 48 48 48 48 48 49 49 49 48 47 48 49 49 49 49 49 49 49
30 31 31 32 32 33 34 35 36 37 38 38 39 40 41 42 43 44 44 44 44 44 44 45 46 47 47 47 48 48 48 49 49 49 48 48 48 48 48 48 48 48 48
30 31 32 33 33 33 34 34 36 36 37 37 38 39 40 41 42 43 43 44 44 44 44 44 45 47 47 47 48 48 48 48 48 48 48 48 49 48 48 48 48 48 48
30 31 31 31 32 32 33 34 35 36 37 37 37 38 39 40 40 41 42 43 43 44 44 44 45 45 46 47 47 47 48 48 48 48 48 48 48 47 47 47 47 47 47
29 29 30 30 30 31 32 32 33 34 34 35 36 37 38 38 39 40 41 42 43 44 44 44 44 45 45 45 46 47 47 48 47 46 46 46 46 46 45 45 45 46 46
28 28 28 29 29 29 30 31 31 32 32 32 33 34 35 35 36 38 39 40 41 42 43 43 44 44 45 45 45 45 45 45 45 45 45 45 45 45 45 45 45 44 45
27 27 28 28 28 29 29 30 30 30 31 31 32 33 34 35 36 37 37 38 39 40 41 41 42 42 43 43 43 43 44 44 44 44 45 45 45 45 45 45 44 44 44
27 27 28 28 28 28 28 29 30 30 30 31 31 32 33 34 35 36 36 37 38 38 39 39 40 40 41 41 41 41 42 43 43 43 43 44 43 44 44 43 43 43 43
27 27 28 28 28 28 28 28 29 29 30 30 31 32 32 33 34 35 36 36 38 38 38 38 38 39 40 40 40 40 40 41 41 41 41 41 41 41 42 42 42 41 41
27 28 28 28 28 28 28 28 29 29 29 29 29 30 30 31 32 33 33 34 34 35 36 37 37 37 37 37 38 39 40 40 40 41 40 40 40 40 40 40 40 40 39
28 28 28 28 28 28 28 28 28 28 28 28 29 29 29 30 30 31 32 32 32 33 34 34 35 35 36 36 36 37 38 38 38 39 39 39 40 40 39 39 38 38 38
28 28 28 28 28 28 28 28 28 28 28 28 28 28 28 29 29 29 29 30 30 31 32 32 32 33 33 34 34 35 36 37 37 37 38 38 38 38 37 37 37 37 36
28 28 28 28 28 27 27 27 27 27 28 28 28 29 29 29 29 29 29 29 29 29 30 30 31 31 31 31 31 32 32 33 33 34 35 35 36 36 36 36 36 35 35
Wind_Direction
250 248 247 245 244 243 243 242 242 243 245 245 242 243 244 243 244 245 246 248 247 247 248 250 250 252 253 255 255 256 258 259 261 260 259 258 258 258 259 259 258 259 260
251 251 249 248 246 245 244 243 244 244 244 244 243 243 244 244 244 246 247 248 247 246 248 250 251 253 254 255 255 256 258 259 260 260 259 258 259 259 260 260 260 260 261
255 254 252 250 248 247 246 246 245 244 244 244 243 244 244 244 245 246 247 247 247 247 249 251 252 253 254 255 256 257 258 258 258 260 259 258 260 259 260 261 261 262 262
257 256 254 250 248 247 247 247 245 244 244 245 245 245 244 244 244 245 247 248 247 248 249 251 253 253 254 255 256 257 258 258 259 260 260 260 260 260 261 261 261 261 262
259 258 257 252 249 249 248 247 245 243 243 245 246 246 245 243 243 245 246 247 247 247 248 251 253 254 255 255 255 257 258 259 259 259 260 261 261 262 261 260 261 261 261
261 259 257 253 249 249 249 248 246 244 244 245 247 247 246 245 245 245 247 247 247 248 250 251 253 254 254 255 256 258 259 259 260 260 261 262 262 262 262 262 261 261 262
262 260 258 254 251 251 249 248 247 247 246 246 247 247 248 247 246 248 249 248 248 250 251 252 253 253 254 256 257 258 258 259 259 260 261 262 262 262 262 262 262 263 263
265 261 259 257 254 253 251 250 249 250 249 247 248 248 248 248 248 248 248 248 248 249 250 252 253 254 256 256 257 258 259 258 258 259 262 262 262 262 262 262 262 263 264
267 263 261 259 256 255 253 251 251 251 250 249 249 249 249 249 249 249 249 248 249 249 251 252 254 255 256 255 256 258 259 258 258 260 261 261 261 261 262 262 262 263 264
270 267 264 262 260 257 256 254 253 253 252 252 252 253 253 252 252 251 251 250 250 251 253 253 254 255 254 254 256 258 258 258 258 258 259 259 260 261 262 262 263 264 265
274 272 268 266 263 260 258 257 256 255 255 255 256 257 257 256 256 255 253 251 252 254 255 255 255 255 255 255 256 257 258 258 258 258 259 260 260 261 262 262 264 265 266
275 274 271 267 264 262 261 260 259 258 258 258 258 259 258 258 257 256 255 253 254 256 256 256 256 255 255 256 257 258 259 257 258 259 259 259 259 261 262 263 264 264 265
273 272 271 269 266 263 262 261 261 260 260 260 260 260 259 258 257 256 254 254 255 257 257 256 255 255 254 255 256 258 258 258 258 260 260 259 260 261 262 263 264 265 264
273 273 272 272 270 267 265 262 262 263 262 262 261 260 259 257 256 255 254 254 255 255 255 255 254 253 254 255 256 257 258 258 259 260 260 260 260 261 262 263 264 265 264
274 273 273 272 272 270 267 265 264 263 263 263 262 261 259 258 256 256 255 256 255 254 255 254 253 253 254 255 256 257 257 258 259 261 260 260 260 261 262 263 263 263 263
276 274 273 273 272 270 267 266 264 264 264 264 263 262 260 258 257 256 256 255 254 254 254 255 254 254 254 255 256 257 257 258 258 259 259 260 260 260 261 262 262 262 263
279 277 275 274 272 270 268 267 266 265 265 264 263 261 259 258 257 257 256 255 255 255 256 256 256 255 255 255 255 256 257 257 257 257 258 259 260 260 261 262 262 263 264
281 279 277 275 273 271 270 268 267 267 266 264 262 261 260 259 258 257 255 254 255 255 256 256 256 256 256 256 256 256 257 257 257 258 258 258 259 260 260 261 262 263 264
281 280 279 278 276 273 271 269 267 266 266 265 262 261 260 259 259 258 255 255 256 256 256 256 257 257 257 256 257 258 258 258 258 259 260 260 259 259 259 261 262 263 264
281 281 280 279 278 276 274 271 269 267 267 266 264 262 260 259 259 259 257 256 255 256 256 256 257 257 257 257 258 259 259 259 259 260 261 260 260 260 260 262 262 264 264
281 280 280 279 278 276 274 272 270 269 267 267 266 265 264 262 262 261 259 257 256 257 257 257 258 258 258 257 258 258 258 258 258 259 259 259 260 260 260 262 263 264 264
282 281 280 279 278 277 275 273 271 270 269 268 268 268 267 266 265 263 261 259 258 258 258 258 258 258 258 259 258 258 258 258 257 258 258 258 258 259 259 261 262 263 263
282 281 281 280 278 277 275 274 273 271 270 269 268 268 268 267 266 263 261 259 258 258 258 259 259 260 260 260 259 258 258 258 257 257 257 258 258 258 260 261 261 262 263
282 282 281 280 278 276 275 274 273 272 270 270 269 269 269 269 268 265 262 260 260 259 259 259 260 260 261 261 260 259 257 257 257 257 257 258 258 258 259 260 260 261 262
282 282 281 280 278 276 275 274 272 271 270 270 270 269 269 269 268 265 263 261 260 260 259 259 260 261 261 261 261 260 259 258 258 257 257 257 257 257 258 259 259 260 261
282 281 280 280 279 277 275 274 273 272 271 271 270 269 270 269 268 266 264 263 262 262 261 260 261 261 261 261 260 260 259 258 257 257 257 258 258 258 259 259 260 261 261
Height
5575 5577 5580 5583 5586 5589 5592 5596 5599 5603 5607 5611 5614 5618 5622 5626 5629 5633 5637 5640 5644 5647 5650 5653 5656 5658 5660 5662 5664 5666 5667 5669 5671 5672 5673 5674 5676 5678 5679 5680 5682 5683 5685
5566 5568 5570 5573 5575 5578 5581 5585 5588 5592 5595 5598 5602 5606 5610 5614 5617 5621 5625 5628 5631 5635 5638 5641 5644 5646 5648 5650 5652 5653 5655 5656 5658 5660 5661 5662 5664 5665 5666 5668 5669 5670 5672
5557 5559 5561 5562 5565 5567 5570 5573 5576 5580 5583 5586 5589 5594 5598 5601 5605 5609 5612 5615 5619 5623 5626 5629 5631 5634 5636 5638 5639 5641 5643 5644 5645 5647 5649 5650 5651 5652 5653 5655 5656 5657 5659
5548 5549 5551 5552 5554 5556 5559 5561 5564 5567 5571 5574 5577 5581 5585 5588 5592 5596 5599 5603 5607 5610 5613 5616 5619 5621 5623 5625 5627 5629 5630 5632 5633 5634 5636 5638 5639 5640 5640 5642 5643 5644 5645
5539 5540 5541 5542 5543 5545 5547 5550 5552 5555 5558 5562 5565 5568 5572 5576 5580 5584 5587 5591 5594 5598 5601 5603 5606 5608 5610 5612 5614 5616 5618 5619 5621 5622 5624 5625 5626 5627 5628 5628 5630 5631 5632
5530 5530 5530 5531 5533 5535 5536 5538 5541 5544 5547 5550 5554 5557 5560 5564 5568 5571 5575 5578 5582 5585 5588 5591 5593 5595 5598 5600 5602 5603 5605 5607 5608 5610 5611 5612 5613 5614 5615 5615 5617 5618 5620
5521 5521 5521 5521 5523 5523 5525 5528 5530 5533 5535 5538 5542 5545 5548 5552 5555 5559 5562 5565 5569 5572 5576 5578 5581 5583 5585 5587 5589 5590 5592 5593 5595 5597 5599 5600 5601 5602 5602 5603 5604 5605 5606
5511 5511 5511 5511 5513 5513 5515 5517 5520 5522 5524 5527 5530 5533 5536 5539 5542 5546 5549 5552 5555 5559 5562 5565 5568 5570 5572 5574 5576 5577 5579 5581 5582 5584 5586 5587 5588 5588 5589 5590 5591 5592 5593
5502 5502 5501 5502 5503 5504 5505 5507 5509 5511 5513 5515 5518 5521 5524 5526 5529 5532 5535 5538 5542 5545 5548 5551 5554 5557 5559 5561 5563 5565 5566 5568 5569 5571 5572 5573 5574 5575 5575 5576 5577 5578 5580
5493 5492 5492 5492 5493 5494 5495 5496 5498 5500 5502 5504 5506 5509 5511 5514 5516 5519 5521 5525 5529 5533 5536 5538 5541 5543 5545 5547 5550 5552 5554 5555 5557 5558 5559 5560 5561 5562 5563 5563 5564 5565 5566
5484 5483 5483 5483 5483 5484 5484 5486 5487 5489 5491 5493 5495 5497 5499 5502 5503 5506 5508 5512 5515 5519 5522 5525 5527 5530 5532 5534 5537 5539 5541 5542 5543 5545 5546 5547 5548 5549 5550 5550 5551 5552 5552
5476 5475 5474 5474 5474 5474 5474 5475 5476 5478 5479 5481 5483 5484 5486 5488 5490 5493 5495 5499 5502 5506 5509 5512 5514 5516 5519 5521 5523 5526 5527 5528 5530 5531 5532 5534 5535 5536 5537 5537 5537 5538 5538
5467 5466 5465 5465 5464 5464 5465 5465 5466 5467 5468 5470 5471 5472 5474 5476 5478 5480 5483 5486 5489 5492 5495 5498 5500 5503 5505 5508 5510 5512 5513 5514 5516 5517 5519 5520 5521 5522 5522 5523 5523 5524 5524
5458 5457 5456 5455 5455 5454 5455 5455 5455 5456 5457 5457 5459 5460 5461 5463 5464 5466 5469 5472 5476 5478 5481 5484 5486 5489 5491 5494 5496 5498 5499 5501 5502 5504 5505 5506 5506 5507 5508 5509 5509 5510 5510
5450 5448 5447 5446 5445 5445 5445 5445 5445 5445 5445 5446 5447 5448 5449 5451 5452 5454 5456 5459 5463 5465 5468 5470 5473 5475 5478 5480 5482 5484 5485 5487 5488 5489 5490 5492 5492 5493 5494 5494 5495 5496 5496
5440 5439 5438 5436 5436 5435 5435 5435 5434 5435 5435 5435 5435 5437 5438 5439 5441 5442 5444 5446 5449 5452 5455 5457 5460 5462 5464 5466 5468 5470 5471 5473 5474 5475 5476 5477 5478 5479 5480 5480 5481 5482 5482
5431 5429 5428 5426 5425 5425 5425 5424 5425 5425 5424 5425 5425 5425 5426 5428 5429 5430 5432 5434 5437 5439 5442 5444 5446 5448 5450 5452 5454 5456 5458 5459 5460 5461 5462 5463 5464 5465 5466 5466 5467 5467 5468
5422 5420 5418 5417 5416 5415 5414 5414 5414 5414 5414 5414 5415 5415 5415 5416 5417 5418 5420 5422 5424 5427 5429 5431 5433 5435 5437 5438 5440 5442 5443 5445 5446 5447 5448 5449 5450 5451 5452 5453 5453 5454 5454
5413 5411 5409 5408 5406 5405 5404 5404 5403 5403 5404 5404 5404 5404 5405 5405 5406 5407 5408 5410 5412 5414 5416 5418 5420 5421 5423 5425 5426 5428 5429 5431 5432 5433 5434 5435 5436 5437 5438 5439 5439 5440 5440
5404 5402 5400 5399 5397 5396 5395 5394 5394 5393 5394 5394 5394 5394 5394 5395 5396 5396 5397 5399 5400 5402 5404 5405 5407 5408 5410 5411 5413 5414 5416 5417 5418 5419 5420 5421 5422 5423 5424 5425 5426 5427 5427
5395 5393 5391 5390 5388 5387 5386 5385 5384 5384 5384 5384 5384 5384 5384 5384 5385 5385 5385 5387 5388 5390 5391 5393 5394 5395 5397 5398 5399 5401 5402 5404 5405 5406 5407 5408 5409 5410 5411 5412 5413 5414 5414
5385 5384 5382 5380 5379 5377 5376 5375 5375 5374 5374 5374 5374 5374 5374 5373 5374 5374 5374 5375 5376 5378 5379 5380 5381 5383 5384 5385 5386 5388 5389 5390 5391 5392 5394 5395 5396 5397 5398 5399 5400 5401 5401
5376 5374 5372 5371 5369 5368 5367 5366 5365 5365 5364 5364 5364 5364 5363 5363 5363 5363 5363 5364 5365 5366 5367 5368 5369 5370 5372 5373 5373 5375 5376 5377 5378 5379 5381 5382 5383 5384 5385 5386 5387 5388 5389
5366 5364 5363 5361 5359 5358 5357 5356 5355 5355 5354 5354 5354 5354 5353 5353 5352 5352 5352 5352 5353 5354 5355 5357 5358 5359 5360 5361 5361 5362 5364 5365 5366 5367 5368 5370 5371 5372 5373 5374 5375 5376 5377
5356 5354 5353 5351 5349 5348 5347 5346 5345 5345 5344 5344 5344 5343 5343 5342 5342 5342 5342 5342 5343 5343 5344 5346 5347 5348 5348 5349 5350 5350 5351 5353 5354 5355 5356 5358 5359 5360 5361 5362 5363 5364 5365
5347 5345 5343 5341 5340 5338 5337 5336 5336 5335 5335 5334 5334 5333 5333 5332 5332 5332 5332 5332 5333 5334 5334 5335 5336 5337 5337 5338 5339 5339 5340 5341 5342 5343 5344 5346 5347 5348 5350 5351 5352 5353 5354